Location: Devargunta
(16.7631°N, 80.9077°E)
Time: 16:18:26
(UTC+00:00)

BREEZE-M R/B - Pass Details

Date: 19 January 2021
Orbit: 312 x 4511 km, 49.7° (Epoch: 26 February)

Event Time Altitude Azimuth Distance (km) Brightness Sun altitude
Exits shadow 23:28:34 33° 217° (SW) 1,253 4.4 -23.7°
Drops below altitude 10° 23:31:19 10° 175° (S) 1,861 5.7 -23.1°
Sets 23:33:04 0° 165° (SSE) 2,511 6.6 -22.7°
